Weather Roundup
Issued by NWS Springfield, MO

Home | Current Version | Previous Version | Text Only | Print | Product List | Glossary On
Versions: 1 2 3 4 5 6 7 8 9 10 11 12 13 14 15 16 17 18 19 20 21 22 23 24 25 26 27 28 29 30 31 32 33 34 35 36 37 38 39 40 41 42 43 44 45 46 47 48 49 50
000
NZUS99 KSGF 281307
HRRSGF

HOURLY WEATHER
NATIONAL WEATHER SERVICE SPRINGFIELD MO
800 AM CDT FRI APR 28 2017

......SGF CWA......

CITY           SKY/WX    TMP DP  RH WIND       PRES   REMARKS
SPRINGFIELD    LGT RAIN  55  54  96 E12       29.72F
JOPLIN         LGT RAIN  59  55  87 E8        29.65F
WEST PLAINS    CLOUDY    56  51  84 E5        29.82R
ROLLA          LGT RAIN  54  53  97 S14G22    29.78R
OSAGE BEACH    LGT RAIN  55  54  96 S7        29.77R
BRANSON        CLOUDY    54  54 100 NE5       29.75F THUNDER

......SURROUNDING SGF CWA......

CITY           SKY/WX    TMP DP  RH WIND       PRES   REMARKS
CHANUTE        LGT RAIN  58  53  84 SE17G24   29.62R
PARSONS        LGT RAIN  57  55  93 SE9       29.65R
COFFEYVILLE    CLOUDY    58  55  90 SE7       29.64R
EMPORIA        CLOUDY    54  52  93 VRB5      29.61R
GROVE OK       CLOUDY    57  55  94 CALM      29.65S
ROGERS AR      CLOUDY    57  53  86 E15       29.68F
SILOAM SPRINGS CLOUDY    57  52  82 SE8       29.65S
HARRISON AR    CLOUDY    54  53  97 E8        29.73F
NEAR YELLVILLE CLOUDY   N/A N/A N/A E5        29.72F

......KANSAS AND MISSOURI......

CITY           SKY/WX    TMP DP  RH WIND       PRES   REMARKS
KANSAS CTY INT CLOUDY    51  50  96 E13       29.66S
DOWNTOWN KC    CLOUDY    53  51  93 E7        29.67R
COLUMBIA       CLOUDY    53  52  96 SE12      29.77R
SEDALIA        RAIN      53  53 100 SE16      29.72R FOG
ST JOSEPH      RAIN      49  49 100 E12       29.69S FOG
ST LOUIS       LGT RAIN  56  50  80 SE13      29.82F
SPIRIT OF STL  LGT RAIN  55  52  89 VRB5      29.82R
KIRKSVILLE     LGT RAIN  44  43  96 NE9       29.79S
WICHITA        CLOUDY    54  52  93 CALM      29.60R
TOPEKA         CLOUDY    52  52 100 E8        29.64R
OLATHE         CLOUDY    51  51 100 E8        29.67R

......TENNESSEE......

CITY           SKY/WX    TMP DP  RH WIND       PRES   REMARKS
MEMPHIS        MOSUNNY   64  57  78 SE8G20    29.82S
NASHVILLE      PTSUNNY   59  54  83 SE5       29.92F

......ARKANSAS.......

CITY           SKY/WX    TMP DP  RH WIND       PRES   REMARKS
FAYETTEVILLE   CLOUDY    62  56  80 SE12G25   29.65S
FT SMITH       PTSUNNY   60  53  77 E14       29.66F
LITTLE ROCK    CLOUDY    59  58  96 E9        29.76F

......OKLAHOMA.......

CITY           SKY/WX    TMP DP  RH WIND       PRES   REMARKS
TULSA          CLOUDY    59  56  89 SE6       29.61R
PONCA CITY     CLOUDY    57  52  83 SE18      29.57F
MCALESTER      CLOUDY    65  58  78 S12G18    29.61F
OKLAHOMA CITY  CLOUDY    58  55  90 S7        29.59R

......IOWA............

CITY           SKY/WX    TMP DP  RH WIND       PRES   REMARKS
DES MOINES     CLOUDY    39  29  67 NE12      29.86S WCI  32
QUAD CITIES    CLOUDY    44  34  67 E8        29.91R

......ILLINOIS........

CITY           SKY/WX    TMP DP  RH WIND       PRES   REMARKS
QUINCY         CLOUDY    50  49  96 E9        29.80F
CHICAGO        CLOUDY    44  32  62 CALM      29.93S



USA.gov is the U.S. government's official web portal to all federal, state and local government web resources and services.